Location: ????????
(54.8751°N, 38.5756°E)
Time: 06:23:04
(UTC+00:00)

Cosmos 1743 Rocket - Visible Passes

Search period start: 16 July 2024 00:00
Search period end: 26 July 2024 00:00
Orbit: 601 x 628 km, 82.6° (Epoch: 15 July)

Date Brightness Start Highest point End Pass type
(mag) Time Alt. Az. Time Alt. Az. Time Alt. Az.
18 Jul 6.3 23:44:42 10° ESE 23:46:52 13° E 23:49:02 10° NE visible
19 Jul 6.0 23:59:18 10° SE 00:02:37 21° E 00:05:55 10° NE visible
21 Jul 5.3 00:14:29 10° SSE 00:18:26 32° E 00:22:22 10° NNE visible
22 Jul 6.3 23:11:22 10° ESE 23:13:16 13° E 23:15:11 10° NE visible
23 Jul 5.9 23:25:49 10° SE 23:28:59 20° E 23:32:10 10° NE visible
24 Jul 5.3 23:40:56 10° SSE 23:44:48 30° E 23:48:40 10° NNE visible
